Regional Weather Roundup
Issued by NWS Portland, ME

Current Version | Previous Version | Text Only | Print | Product List | Glossary Off
Versions: 1 2 3 4 5 6 7 8 9 10 11 12 13 14 15 16 17 18 19 20 21 22 23 24 25 26 27 28 29 30 31 32 33 34 35 36 37 38 39 40 41 42 43 44 45 46 47 48 49 50
481 ASUS41 KGYX 261710 RWRGYX WEATHER ROUNDUP FOR MAINE AND NEW HAMPSHIRE NATIONAL WEATHER SERVICE GRAY ME 100 PM EDT WED JUL 26 2017 MEZ002-005-006-010-012-015-018-020-021-024-026-027-029-261800- MAINE CITY SKY/WX TMP DP RH WIND PRES REMARKS PORTLAND MOSUNNY 79 51 37 E10 30.18F SANFORD MOSUNNY 79 53 40 VRB6 30.19F WISCASSET SUNNY 81 51 35 S8 30.18F ROCKLAND SUNNY 71 58 63 SE6 30.19F FRYEBURG PTSUNNY 77 53 43 CALM 30.19F LEWISTONAUBURN SUNNY 78 50 37 VRB6 30.17F AUGUSTA SUNNY 79 45 29 VRB5 30.18F WATERVILLE SUNNY 78 50 37 VRB3 30.15F BANGOR MOSUNNY 80 49 33 SW7 30.17F GREENVILLE N/A N/A N/A N/A NW5 30.16F MILLINOCKET SUNNY 79 49 34 SW6 30.16F HOULTON SUNNY 79 49 34 VRB5 30.13F PRESQUE ISLE SUNNY 78 52 40 S9 30.13F FRENCHVILLE SUNNY 75 47 36 MISG 30.12F CARIBOU SUNNY 78 52 40 VRB5 30.12F $$ NHZ002-005-008-009-011-012-014-261800- NEW HAMPSHIRE CITY SKY/WX TMP DP RH WIND PRES REMARKS PORTSMOUTH MOSUNNY 78 55 45 SE5 30.17F ROCHESTER PTSUNNY 76 54 46 CALM 30.18F NASHUA PTSUNNY 77 53 43 CALM 30.20F MANCHESTER PTSUNNY 78 50 37 W6 30.18F CONCORD SUNNY 79 53 40 W8 30.19F LACONIA MOSUNNY 77 56 48 W5 30.20F PLYMOUTH PTSUNNY 74 55 51 CALM 30.18F BERLIN SUNNY 77 50 38 SE10 30.18F WHITEFIELD N/A 75 54 47 W7 30.18F JAFFREY SUNNY 77 53 43 VRB3 30.23F KEENE SUNNY 76 55 48 S10 30.20F LEBANON SUNNY 76 54 46 MISG 30.18F MT WASHINGTON PTSUNNY 55 45 67 VRB5 N/A $$ VTZ005-007-008-261800- VERMONT CITY SKY/WX TMP DP RH WIND PRES REMARKS ST JOHNSBURY N/A 74 55 51 MISG 30.16F MONTPELIER MOSUNNY 72 56 57 SW8 30.23F BURLINGTON MOSUNNY 76 56 49 S13 30.17F $$ MAZ007-012-024-CTZ003-RIZ002-NYZ038-NYZ072-261800- SOUTHERN NEW ENGLAND AND NY CITY SKY/WX TMP DP RH WIND PRES REMARKS BOSTON MOSUNNY 73 58 59 SE9 30.19F WORCESTER PTSUNNY 72 50 45 VRB5 30.23F NANTUCKET SUNNY 71 60 68 SE13 30.21F PROVIDENCE MOSUNNY 77 56 48 E6 30.21F HARTFORD MOSUNNY 77 55 46 VRB5 30.21F ALBANY MOSUNNY 73 55 53 S9 30.21F NEW YORK CITY MOSUNNY 74 57 55 NE10 30.21F $$ ANZ081-ANZ082-ANZ150-NHZ014-MEZ023>029-261800- COASTAL MARINE OBSERVATIONS STATION/POSITION TIME TEMP WIND PRES WAVE AIR SEA DIR/SP/G HT/PER (UTC) (F) (DEG/KT/KT) (MB) (FT/S) MOUNT DESERT ROC 1700 58 1022.5F MATINICUS ROCK 1600 60 80/ 7/ 7 1022.2F ISLE OF SHOALS 1600 69 130/ 1/ 2 1022.7F JEFFREYS LEDGE 1606 66 N/A 3/ 7 CASHES LEDGE BUO 1550 66 64 1022.9 3/ 7 GEORGES BANK BUO 1550 61 61 1021.2 5/ 8 $$ .............KEY.............. WCI - WIND CHILL TC - TEMPERATURE IN CELSIUS VSB - VISIBILITY IN MILES HX - HEAT INDEX FAIR- INDICATES FEW OR NO CLOUDS BELOW 12,000 FT, WITH NO SIGNIFICANT WEATHER AND/OR OBSTRUCTIONS TO VISIBILITY.

USA.gov is the U.S. government's official web portal to all federal, state and local government web resources and services.